Wind_Speed
26 27 28 29 30 31 32 34 35 36 37 38 39 40 41 42 42 43 44 45 46 47 48 48 48 48 48 48 48 48 48 47 46 46 46 45 44 43 42 41 40 39 39
28 29 30 31 32 33 34 36 37 39 40 41 42 43 44 45 46 46 47 48 49 50 50 51 51 51 51 51 51 51 52 52 51 51 51 50 50 49 47 47 46 45 43
28 29 31 32 33 35 36 38 39 41 42 44 45 46 47 48 49 50 50 51 51 52 52 54 55 55 55 55 55 55 55 56 56 56 56 55 55 54 53 52 51 50 49
27 29 31 33 35 37 39 41 42 44 46 47 49 50 51 53 54 54 55 55 56 57 58 59 60 60 61 61 61 60 59 59 59 60 60 60 59 58 58 57 56 56 55
29 31 33 35 37 39 42 44 47 49 50 52 53 55 56 57 58 59 59 60 61 62 63 64 65 65 66 66 66 67 66 65 65 64 64 64 63 63 62 62 61 60 59
33 35 38 40 42 45 47 49 51 53 55 56 57 58 59 60 61 62 62 64 65 66 67 67 68 68 69 69 70 71 72 72 71 70 69 68 67 67 67 66 65 64 64
38 40 43 45 47 49 51 52 54 56 58 59 59 60 61 62 62 63 63 64 65 66 66 67 67 68 68 69 71 72 73 74 75 74 73 71 70 70 69 69 69 68 67
42 45 48 50 51 52 53 54 56 57 57 57 58 58 58 57 58 58 59 59 60 60 60 61 62 63 64 65 65 66 68 70 72 73 73 72 71 70 69 70 71 70 70
47 50 52 53 53 53 54 55 55 55 54 54 53 52 49 48 48 49 51 52 53 54 56 56 57 57 58 58 58 59 61 62 64 67 69 70 70 70 69 69 69 70 71
51 54 56 56 55 55 55 54 52 50 49 48 46 45 45 45 45 45 44 45 47 50 52 53 54 54 54 55 55 54 54 54 55 57 60 63 65 66 67 67 67 67 68
55 58 58 58 57 55 54 52 50 48 45 44 43 42 43 44 46 47 47 47 49 50 51 52 52 52 52 52 51 50 48 47 47 47 49 51 55 57 59 61 62 63 63
59 61 60 59 57 55 53 49 47 44 43 42 42 43 44 46 48 50 51 51 52 52 52 53 52 51 50 49 48 47 45 44 44 44 44 45 47 49 51 53 56 58 60
60 60 59 57 55 53 49 46 44 42 42 42 44 46 49 51 53 54 55 55 54 53 53 52 52 51 50 48 46 44 42 42 41 41 42 42 43 45 47 50 52 54 56
59 58 56 55 52 48 45 43 42 43 44 46 48 51 53 56 58 59 59 59 57 55 53 50 50 50 48 45 43 42 40 39 38 39 39 40 41 43 45 47 49 50 53
57 56 53 51 47 44 43 43 43 45 48 51 53 56 59 60 61 61 61 61 60 57 51 47 47 47 46 43 41 38 36 35 35 36 37 38 40 41 43 44 46 47 50
56 53 50 47 45 44 43 44 46 49 53 55 58 61 62 62 62 61 61 59 58 55 49 43 42 42 42 40 37 34 32 31 31 32 34 35 36 39 40 42 44 46 47
53 50 48 45 44 44 45 47 51 54 57 60 62 62 62 62 60 58 57 54 51 49 46 40 38 37 38 36 33 30 28 28 28 29 30 31 33 35 37 39 41 43 45
50 48 45 44 44 46 48 51 54 58 60 61 62 62 60 59 56 53 50 48 46 44 41 36 33 33 33 32 29 27 25 25 26 27 27 28 30 31 33 35 37 39 41
48 46 45 45 46 49 52 55 57 59 61 62 61 59 56 53 49 47 44 43 41 39 37 32 28 28 28 27 24 23 23 23 23 24 25 26 28 29 31 33 35 36 39
46 45 45 47 49 52 55 56 58 59 60 59 57 54 50 46 43 41 39 37 36 34 31 27 23 23 23 22 20 20 20 20 20 20 22 23 25 27 29 31 33 35 37
44 45 47 50 52 54 56 57 58 58 57 54 50 47 44 41 38 36 34 32 30 27 24 21 19 18 19 18 17 16 16 16 17 18 19 20 22 25 27 29 31 33 36
45 47 49 51 53 55 56 56 56 55 53 48 44 41 39 37 34 31 29 27 24 21 18 17 14 14 14 14 13 12 12 12 13 14 16 18 20 21 23 24 25 26 29
47 49 50 52 53 54 54 54 52 50 46 42 39 37 35 33 30 26 24 21 18 15 13 11 10 10 10 10 10 9 9 9 10 10 12 14 14 15 16 16 17 19 21
48 49 50 51 52 52 51 49 47 44 40 37 35 33 31 28 25 21 18 15 12 9 8 7 8 8 8 9 8 6 5 5 5 6 7 7 8 9 9 10 10 10 11
48 49 50 50 50 49 47 45 42 39 37 34 32 29 26 22 19 16 12 9 7 5 5 7 8 8 8 8 6 5 3 1 2 3 3 5 7 7 8 7 4 2 4
47 48 48 48 46 45 43 41 38 35 33 31 28 24 20 16 13 10 6 4 4 6 8 9 9 8 8 7 5 4 2 2 3 5 7 9 10 11 11 9 7 9 12
Wind_Direction
305 306 306 306 305 305 304 303 302 300 298 296 294 292 290 288 286 285 283 280 279 279 278 276 275 274 273 272 271 270 268 267 265 263 261 260 259 257 255 254 254 254 254
307 308 308 307 306 304 303 302 301 299 297 295 293 291 290 288 287 286 284 282 280 278 278 277 276 274 272 271 269 267 265 264 264 262 261 260 258 257 255 253 252 252 252
309 309 309 307 306 304 302 301 299 297 295 293 291 289 288 287 286 285 283 282 281 279 278 278 277 276 274 272 269 267 264 262 262 261 260 259 258 257 256 255 253 252 251
311 310 309 307 305 303 302 300 298 295 294 292 290 289 288 287 286 284 282 281 281 280 279 279 278 276 275 274 272 269 266 263 261 260 259 258 258 257 256 255 254 253 252
313 312 310 308 306 304 301 299 298 296 294 292 290 288 287 286 285 284 282 281 280 279 278 278 278 277 276 275 273 271 269 266 263 260 258 257 256 256 256 255 255 254 253
316 315 313 311 309 307 304 302 299 297 295 293 291 289 287 286 285 284 283 282 281 280 279 278 277 276 276 275 274 272 270 267 264 262 259 257 255 254 254 253 253 253 253
319 318 316 313 311 308 305 303 301 299 297 295 292 290 288 286 285 284 284 283 282 281 280 278 277 276 275 275 274 273 270 268 265 262 259 256 255 254 253 252 252 252 252
320 319 316 314 311 308 305 303 302 300 297 295 293 291 289 287 285 285 285 284 283 282 282 280 279 277 276 276 275 274 271 268 266 262 259 257 255 253 252 252 251 250 250
319 318 316 313 310 308 306 304 302 300 298 297 296 295 293 291 288 286 285 285 284 284 283 281 280 279 279 277 276 275 273 270 267 263 259 256 254 252 251 251 251 250 249
318 317 315 313 310 308 307 305 304 302 300 299 299 298 296 295 294 292 291 289 287 286 284 283 282 280 279 278 278 277 274 271 268 264 260 256 253 251 250 249 249 249 248
316 316 314 312 311 309 307 306 304 303 301 301 300 299 299 298 297 296 295 293 292 290 288 286 283 280 278 277 277 276 274 271 268 265 260 256 253 250 249 247 247 247 246
316 315 314 312 311 310 307 304 303 301 301 301 300 300 300 299 298 297 297 296 293 292 291 288 285 282 278 276 276 275 272 270 267 264 260 256 252 249 248 246 246 245 244
314 313 312 311 310 308 304 302 301 300 301 301 301 301 300 300 299 298 297 295 294 292 290 288 285 282 278 276 274 272 271 269 266 262 258 255 252 250 247 246 245 244 243
312 311 311 310 308 305 302 300 299 300 300 301 301 301 300 300 299 298 296 295 293 291 290 286 283 280 277 274 271 270 270 267 264 261 258 254 251 249 248 246 245 244 242
311 311 311 310 307 304 301 299 299 300 301 301 301 301 301 300 299 297 296 295 293 291 289 285 280 277 275 272 268 268 267 265 262 260 256 253 252 250 248 247 245 244 243
311 311 311 308 305 302 299 300 301 302 302 302 302 301 300 299 298 297 296 294 293 291 288 283 278 274 270 267 266 265 264 262 260 258 255 254 253 251 249 248 247 245 244
311 311 310 307 304 302 301 302 303 303 303 303 302 301 300 299 298 296 295 293 291 289 288 282 276 270 265 262 263 262 261 259 258 258 257 256 255 253 252 251 250 248 246
312 311 309 306 304 304 304 305 305 305 304 303 302 301 300 299 298 296 294 292 290 289 287 281 274 267 260 258 258 258 258 258 258 258 258 257 256 255 255 253 251 248 246
311 310 308 307 306 307 307 307 306 305 304 304 303 302 301 300 298 296 294 292 290 289 286 280 271 261 256 254 253 253 256 258 257 258 258 258 258 257 256 255 252 249 246
311 310 309 309 309 309 308 308 307 306 305 305 305 304 303 301 299 296 294 293 290 288 284 277 267 255 250 249 248 250 254 256 257 258 260 261 260 260 260 258 256 253 249
311 311 311 311 310 310 309 308 308 307 307 307 306 305 304 303 301 297 294 292 290 286 281 273 261 249 244 244 246 248 250 254 256 260 262 264 265 267 267 265 261 257 253
313 313 313 312 312 311 311 310 310 310 309 309 308 306 306 304 302 298 295 292 288 283 276 267 254 240 236 237 238 240 247 252 257 263 269 274 277 275 275 271 267 262 254
315 314 314 313 313 312 313 313 312 311 311 311 309 308 307 305 302 299 295 292 285 277 267 253 236 228 224 224 223 230 241 251 262 274 281 287 287 288 288 281 272 263 254
315 315 314 314 314 315 315 314 314 313 313 312 311 310 308 306 303 299 294 288 279 265 248 224 209 203 199 198 203 216 230 251 275 294 304 308 310 312 310 302 288 270 253
316 315 315 316 317 317 317 316 315 314 314 313 313 311 308 306 303 298 290 280 262 231 196 176 171 173 176 181 187 191 201 251 314 336 2 11 9 3 355 344 326 251 178
316 316 317 318 319 319 318 318 317 315 315 314 314 312 310 306 302 297 279 245 198 169 159 158 158 161 161 160 157 153 144 101 73 76 69 55 48 41 31 42 74 111 127
Height
5840 5838 5836 5834 5832 5830 5828 5826 5824 5821 5819 5817 5814 5812 5810 5808 5806 5805 5803 5801 5800 5798 5797 5797 5796 5796 5796 5796 5797 5797 5797 5797 5798 5799 5799 5800 5802 5803 5805 5807 5809 5812 5814
5834 5832 5830 5828 5826 5824 5822 5819 5817 5814 5811 5809 5806 5803 5800 5798 5795 5793 5791 5790 5788 5786 5785 5784 5784 5783 5783 5784 5785 5785 5785 5786 5786 5787 5788 5789 5791 5792 5795 5797 5799 5802 5805
5830 5827 5825 5823 5820 5818 5815 5812 5809 5806 5803 5800 5796 5793 5790 5787 5784 5781 5778 5776 5775 5773 5772 5771 5770 5769 5769 5770 5770 5771 5772 5773 5773 5774 5775 5777 5778 5780 5782 5785 5788 5790 5793
5825 5822 5820 5817 5814 5811 5808 5804 5801 5797 5794 5790 5786 5782 5779 5775 5771 5768 5765 5763 5760 5758 5757 5755 5754 5753 5753 5753 5754 5755 5756 5757 5758 5760 5761 5763 5764 5766 5768 5771 5774 5777 5781
5819 5816 5813 5810 5806 5802 5799 5795 5790 5786 5782 5779 5774 5770 5766 5761 5757 5753 5750 5747 5745 5742 5741 5739 5737 5736 5735 5735 5735 5736 5737 5739 5741 5742 5744 5746 5749 5751 5753 5756 5759 5762 5766
5811 5807 5803 5799 5795 5791 5786 5781 5777 5772 5768 5764 5759 5755 5750 5746 5741 5737 5734 5730 5727 5724 5722 5721 5719 5717 5716 5715 5715 5715 5715 5717 5719 5722 5725 5728 5731 5733 5736 5739 5742 5746 5750
5801 5797 5792 5788 5783 5778 5772 5767 5762 5757 5752 5747 5743 5739 5734 5729 5724 5720 5716 5713 5709 5706 5703 5701 5699 5698 5696 5694 5693 5692 5692 5693 5695 5698 5702 5706 5710 5714 5717 5721 5724 5729 5733
5791 5786 5782 5776 5770 5765 5759 5753 5748 5742 5736 5731 5726 5721 5718 5715 5709 5704 5700 5695 5692 5688 5685 5682 5680 5678 5676 5674 5672 5670 5669 5670 5671 5674 5678 5682 5688 5692 5697 5701 5705 5710 5715
5781 5775 5770 5764 5758 5751 5745 5739 5733 5727 5721 5716 5710 5705 5701 5697 5694 5691 5686 5681 5677 5673 5669 5665 5662 5659 5657 5655 5653 5651 5649 5648 5649 5651 5654 5659 5664 5670 5675 5680 5685 5690 5696
5770 5764 5757 5751 5745 5738 5731 5725 5719 5713 5707 5702 5696 5691 5687 5683 5679 5676 5674 5669 5664 5659 5654 5650 5647 5643 5640 5638 5636 5633 5631 5630 5630 5631 5633 5637 5642 5648 5654 5660 5665 5671 5677
5758 5752 5745 5738 5731 5724 5717 5711 5705 5699 5694 5689 5684 5680 5675 5670 5665 5661 5659 5656 5650 5644 5639 5635 5631 5628 5625 5622 5620 5618 5616 5615 5614 5615 5616 5619 5624 5629 5635 5641 5646 5652 5658
5746 5738 5731 5723 5716 5710 5703 5697 5692 5687 5682 5677 5672 5668 5663 5658 5653 5648 5644 5640 5636 5630 5623 5619 5615 5612 5610 5607 5606 5604 5602 5601 5600 5601 5603 5605 5609 5613 5618 5624 5629 5635 5641
5733 5725 5717 5710 5703 5696 5690 5685 5680 5675 5670 5665 5660 5655 5650 5644 5639 5634 5629 5624 5620 5616 5609 5603 5598 5596 5594 5592 5591 5589 5588 5588 5587 5588 5590 5593 5596 5600 5604 5609 5614 5618 5624
5721 5713 5705 5698 5690 5684 5678 5673 5668 5664 5659 5653 5648 5642 5636 5630 5623 5617 5612 5607 5603 5600 5595 5589 5583 5580 5578 5578 5577 5576 5576 5575 5575 5576 5578 5580 5583 5587 5590 5594 5599 5603 5608
5709 5701 5693 5685 5678 5673 5667 5662 5657 5652 5646 5640 5634 5628 5621 5614 5606 5600 5593 5588 5584 5582 5580 5574 5569 5565 5563 5563 5563 5563 5564 5563 5564 5564 5566 5568 5571 5573 5577 5580 5584 5588 5592
5697 5688 5681 5674 5667 5661 5656 5651 5645 5639 5633 5626 5619 5612 5604 5597 5590 5582 5576 5570 5564 5562 5562 5560 5555 5552 5550 5550 5550 5552 5552 5552 5553 5553 5555 5556 5559 5561 5564 5567 5570 5574 5578
5684 5676 5669 5662 5656 5650 5644 5638 5632 5625 5618 5611 5603 5595 5588 5580 5573 5565 5559 5554 5549 5545 5544 5544 5541 5539 5537 5538 5539 5541 5542 5542 5543 5543 5545 5546 5547 5549 5551 5554 5556 5559 5563
5671 5664 5657 5650 5644 5638 5632 5625 5618 5610 5603 5595 5587 5579 5571 5563 5556 5549 5544 5539 5535 5531 5529 5530 5529 5527 5526 5527 5530 5531 5532 5533 5534 5534 5535 5536 5537 5539 5540 5541 5543 5546 5549
5659 5652 5645 5638 5632 5625 5618 5611 5603 5595 5587 5578 5570 5563 5555 5548 5541 5535 5531 5527 5523 5519 5517 5516 5517 5516 5517 5519 5521 5523 5524 5525 5525 5526 5527 5528 5528 5529 5529 5530 5531 5533 5535
5647 5640 5633 5627 5620 5612 5605 5597 5589 5580 5571 5563 5554 5547 5540 5534 5528 5524 5519 5515 5512 5509 5507 5506 5507 5508 5509 5511 5514 5515 5517 5518 5518 5519 5520 5520 5520 5519 5519 5519 5520 5521 5522
5636 5629 5622 5614 5607 5599 5591 5582 5574 5565 5556 5549 5540 5533 5527 5522 5517 5512 5509 5505 5502 5500 5499 5499 5500 5501 5503 5505 5508 5509 5511 5512 5513 5513 5513 5513 5512 5511 5510 5509 5508 5508 5509
5625 5618 5610 5602 5593 5585 5576 5567 5559 5550 5542 5535 5529 5522 5516 5511 5507 5503 5499 5497 5495 5493 5493 5493 5494 5496 5499 5501 5503 5505 5506 5507 5508 5509 5508 5507 5505 5503 5500 5498 5496 5495 5495
5614 5606 5598 5590 5581 5572 5563 5554 5545 5537 5530 5524 5518 5512 5506 5502 5498 5495 5492 5490 5489 5488 5489 5489 5491 5493 5496 5498 5500 5502 5503 5504 5505 5505 5504 5502 5499 5497 5493 5490 5487 5485 5484
5603 5595 5586 5578 5569 5560 5551 5543 5534 5526 5520 5514 5509 5504 5499 5494 5491 5488 5486 5485 5485 5485 5486 5487 5489 5492 5494 5496 5498 5500 5501 5502 5502 5502 5500 5499 5496 5492 5488 5484 5481 5479 5477
5592 5584 5575 5567 5558 5549 5541 5532 5525 5517 5511 5506 5501 5496 5492 5488 5485 5483 5482 5482 5483 5484 5485 5487 5489 5491 5493 5495 5497 5499 5501 5501 5501 5501 5499 5497 5494 5490 5486 5482 5479 5476 5475
5582 5573 5565 5557 5548 5540 5531 5523 5516 5510 5504 5499 5494 5490 5486 5484 5482 5480 5480 5481 5482 5484 5485 5488 5490 5492 5494 5496 5498 5499 5501 5501 5501 5501 5500 5498 5495 5491 5488 5484 5480 5479 5478